GFSNGP_prec_pwat_219.txt.gz
Precipitable_Water
0.35 0.43 0.46 0.43 0.33 0.38 0.37 0.41 0.38 0.37 0.34 0.28 0.31 0.33 0.35 0.36 0.33 0.30 0.34 0.34 0.42 0.57 0.79 0.80 0.81 0.80 0.79 0.75 0.72 0.66 0.60 0.59 0.61 0.68 0.72 0.76 0.81 0.84 0.91 0.99 1.06 1.11 1.16 1.22
0.37 0.44 0.44 0.39 0.44 0.42 0.40 0.41 0.42 0.44 0.40 0.40 0.38 0.38 0.35 0.35 0.34 0.31 0.34 0.37 0.37 0.46 0.54 0.66 0.76 0.78 0.75 0.73 0.74 0.70 0.65 0.66 0.72 0.77 0.72 0.75 0.83 0.87 0.91 0.95 1.03 1.11 1.19 1.23
0.26 0.37 0.38 0.31 0.38 0.42 0.40 0.41 0.39 0.36 0.40 0.42 0.40 0.42 0.40 0.40 0.40 0.35 0.34 0.36 0.40 0.41 0.56 0.61 0.68 0.75 0.76 0.73 0.78 0.75 0.75 0.77 0.79 0.77 0.74 0.79 0.87 0.92 0.94 0.97 1.05 1.07 1.18 1.24
0.26 0.30 0.20 0.30 0.37 0.36 0.36 0.37 0.37 0.38 0.38 0.36 0.39 0.46 0.51 0.48 0.44 0.44 0.44 0.38 0.39 0.42 0.47 0.60 0.76 0.79 0.88 0.91 0.91 0.88 0.85 0.82 0.81 0.80 0.84 0.90 0.91 0.92 0.97 1.02 1.01 1.05 1.08 1.14
0.23 0.22 0.26 0.28 0.31 0.30 0.29 0.27 0.35 0.33 0.34 0.38 0.37 0.43 0.39 0.46 0.52 0.48 0.48 0.48 0.46 0.45 0.47 0.58 0.71 0.81 0.91 0.99 1.00 0.92 0.93 0.93 0.90 0.94 0.97 0.98 0.95 0.97 1.00 1.02 1.00 1.01 1.06 1.07
0.24 0.19 0.16 0.19 0.28 0.34 0.32 0.22 0.33 0.34 0.31 0.29 0.29 0.27 0.25 0.40 0.47 0.48 0.50 0.49 0.49 0.51 0.57 0.62 0.64 0.72 0.71 0.76 0.87 0.87 0.95 0.97 1.06 1.10 1.05 1.02 1.01 0.98 1.01 1.00 0.98 0.98 0.97 0.98
0.20 0.19 0.20 0.22 0.27 0.32 0.23 0.20 0.24 0.25 0.24 0.26 0.25 0.28 0.29 0.34 0.34 0.44 0.44 0.48 0.48 0.49 0.48 0.51 0.59 0.65 0.65 0.71 0.75 0.84 1.00 1.04 1.09 1.13 1.07 1.05 1.00 1.00 1.00 0.97 0.92 0.89 0.86 0.88
0.21 0.18 0.15 0.21 0.20 0.22 0.24 0.26 0.25 0.26 0.28 0.28 0.29 0.33 0.31 0.30 0.35 0.42 0.43 0.48 0.49 0.48 0.46 0.50 0.59 0.64 0.61 0.63 0.75 0.86 0.90 0.92 1.01 1.06 1.07 1.05 1.03 1.03 1.00 0.94 0.86 0.82 0.79 0.78
0.23 0.22 0.29 0.26 0.22 0.22 0.29 0.29 0.24 0.25 0.27 0.30 0.32 0.31 0.32 0.36 0.44 0.50 0.48 0.51 0.51 0.49 0.48 0.52 0.58 0.61 0.58 0.65 0.72 0.76 0.84 0.96 1.03 1.05 1.04 1.04 1.02 0.98 0.93 0.88 0.81 0.75 0.72 0.71
0.30 0.29 0.30 0.29 0.29 0.27 0.28 0.28 0.29 0.30 0.34 0.35 0.33 0.32 0.32 0.38 0.42 0.45 0.51 0.55 0.57 0.55 0.53 0.53 0.60 0.66 0.69 0.71 0.79 0.84 0.89 0.96 0.99 0.98 0.98 1.00 0.96 0.92 0.84 0.80 0.75 0.74 0.75 0.74
0.31 0.30 0.30 0.32 0.32 0.31 0.34 0.35 0.33 0.30 0.28 0.26 0.26 0.25 0.28 0.34 0.38 0.45 0.53 0.61 0.63 0.58 0.57 0.58 0.64 0.67 0.75 0.80 0.87 0.90 0.91 0.92 0.95 0.98 0.97 0.89 0.91 0.89 0.85 0.83 0.79 0.73 0.72 0.71
0.26 0.29 0.35 0.30 0.31 0.34 0.34 0.33 0.31 0.27 0.25 0.28 0.28 0.26 0.27 0.36 0.44 0.52 0.59 0.64 0.66 0.63 0.62 0.65 0.69 0.77 0.83 0.87 0.88 0.87 0.87 0.90 0.91 0.91 0.91 0.91 0.87 0.81 0.79 0.77 0.77 0.77 0.75 0.73
0.31 0.37 0.36 0.32 0.33 0.34 0.33 0.30 0.29 0.29 0.28 0.27 0.27 0.30 0.35 0.42 0.54 0.62 0.66 0.70 0.66 0.66 0.69 0.75 0.81 0.82 0.86 0.88 0.89 0.89 0.88 0.85 0.83 0.84 0.82 0.79 0.73 0.72 0.72 0.77 0.79 0.76 0.70 0.68
0.40 0.40 0.33 0.34 0.32 0.33 0.36 0.31 0.34 0.37 0.36 0.35 0.36 0.37 0.39 0.43 0.56 0.63 0.67 0.72 0.75 0.77 0.79 0.79 0.79 0.79 0.83 0.86 0.88 0.86 0.83 0.81 0.77 0.75 0.75 0.76 0.76 0.74 0.70 0.64 0.63 0.67 0.67 0.61
0.40 0.44 0.44 0.45 0.47 0.45 0.46 0.42 0.40 0.36 0.36 0.42 0.46 0.44 0.45 0.48 0.57 0.66 0.79 0.84 0.86 0.84 0.81 0.82 0.80 0.80 0.85 0.84 0.81 0.79 0.80 0.80 0.79 0.78 0.76 0.75 0.73 0.72 0.69 0.65 0.60 0.57 0.55 0.52
0.44 0.46 0.47 0.47 0.49 0.53 0.54 0.49 0.44 0.40 0.43 0.50 0.50 0.48 0.53 0.57 0.71 0.79 0.85 0.88 0.80 0.76 0.78 0.82 0.84 0.85 0.86 0.83 0.81 0.79 0.78 0.77 0.76 0.75 0.72 0.69 0.67 0.63 0.60 0.57 0.53 0.49 0.44 0.38
0.40 0.39 0.43 0.44 0.50 0.52 0.54 0.61 0.65 0.62 0.66 0.65 0.67 0.67 0.59 0.72 0.75 0.79 0.86 0.84 0.81 0.79 0.78 0.78 0.79 0.79 0.80 0.78 0.75 0.73 0.71 0.71 0.70 0.68 0.65 0.62 0.59 0.55 0.51 0.47 0.40 0.35 0.32 0.32
0.48 0.49 0.49 0.49 0.50 0.52 0.57 0.63 0.67 0.70 0.69 0.72 0.71 0.73 0.72 0.74 0.73 0.78 0.78 0.78 0.75 0.76 0.76 0.73 0.74 0.72 0.72 0.71 0.70 0.69 0.68 0.65 0.61 0.56 0.54 0.51 0.48 0.44 0.37 0.32 0.30 0.28 0.28 0.30
0.45 0.47 0.49 0.50 0.52 0.54 0.56 0.58 0.62 0.65 0.67 0.68 0.69 0.69 0.74 0.74 0.75 0.74 0.75 0.72 0.72 0.69 0.69 0.71 0.71 0.71 0.69 0.68 0.64 0.59 0.55 0.52 0.49 0.46 0.43 0.39 0.34 0.31 0.30 0.28 0.27 0.27 0.27 0.25
0.38 0.41 0.43 0.45 0.51 0.53 0.54 0.57 0.59 0.61 0.64 0.65 0.66 0.66 0.66 0.68 0.69 0.70 0.71 0.68 0.68 0.68 0.69 0.68 0.67 0.62 0.58 0.56 0.55 0.52 0.47 0.42 0.39 0.37 0.33 0.30 0.28 0.27 0.26 0.26 0.26 0.24 0.24 0.24
0.33 0.36 0.36 0.37 0.40 0.47 0.53 0.55 0.56 0.56 0.58 0.61 0.60 0.60 0.61 0.63 0.64 0.63 0.61 0.58 0.63 0.65 0.63 0.59 0.56 0.53 0.52 0.50 0.47 0.42 0.39 0.36 0.34 0.30 0.28 0.27 0.25 0.24 0.24 0.24 0.23 0.23 0.22 0.22
0.32 0.32 0.31 0.31 0.31 0.33 0.37 0.45 0.51 0.54 0.55 0.55 0.55 0.56 0.55 0.56 0.57 0.58 0.58 0.55 0.57 0.58 0.55 0.53 0.52 0.51 0.48 0.46 0.41 0.38 0.37 0.35 0.32 0.29 0.27 0.25 0.23 0.23 0.23 0.23 0.21 0.22 0.22 0.22
0.32 0.32 0.31 0.29 0.29 0.31 0.32 0.32 0.34 0.38 0.42 0.48 0.50 0.51 0.52 0.52 0.53 0.50 0.48 0.55 0.58 0.58 0.56 0.55 0.54 0.52 0.48 0.44 0.40 0.39 0.38 0.35 0.32 0.29 0.26 0.24 0.24 0.23 0.22 0.21 0.21 0.20 0.20 0.21
0.28 0.29 0.30 0.32 0.32 0.29 0.26 0.30 0.31 0.32 0.32 0.32 0.35 0.41 0.44 0.44 0.46 0.51 0.52 0.52 0.52 0.52 0.53 0.55 0.55 0.52 0.48 0.42 0.40 0.39 0.39 0.36 0.32 0.29 0.26 0.24 0.24 0.23 0.22 0.21 0.21 0.21 0.20 0.21
0.26 0.26 0.26 0.26 0.25 0.24 0.27 0.30 0.30 0.30 0.31 0.30 0.31 0.33 0.35 0.36 0.33 0.35 0.36 0.36 0.36 0.37 0.39 0.41 0.46 0.48 0.42 0.39 0.38 0.38 0.38 0.35 0.31 0.26 0.24 0.22 0.22 0.22 0.21 0.20 0.20 0.21 0.21 0.22
0.21 0.21 0.22 0.24 0.24 0.26 0.26 0.26 0.24 0.26 0.28 0.28 0.30 0.32 0.33 0.34 0.34 0.34 0.34 0.34 0.34 0.34 0.34 0.36 0.38 0.39 0.37 0.36 0.36 0.36 0.36 0.34 0.28 0.25 0.23 0.22 0.22 0.21 0.20 0.20 0.20 0.21 0.21 0.23
0.17 0.15 0.15 0.16 0.18 0.19 0.21 0.22 0.22 0.22 0.24 0.25 0.26 0.30 0.32 0.32 0.33 0.33 0.33 0.34 0.35 0.35 0.35 0.35 0.36 0.36 0.37 0.36 0.36 0.37 0.36 0.31 0.27 0.25 0.23 0.23 0.23 0.22 0.20 0.20 0.20 0.21 0.21 0.23

GFSNGP_prec_pwat_222.txt.gz
Precipitable_Water
0.33 0.36 0.40 0.39 0.38 0.41 0.41 0.40 0.34 0.33 0.34 0.28 0.32 0.32 0.33 0.35 0.32 0.36 0.39 0.38 0.36 0.39 0.45 0.57 0.67 0.78 0.83 0.86 0.88 0.87 0.80 0.74 0.70 0.70 0.74 0.79 0.79 0.79 0.82 0.85 0.89 0.94 0.95 0.98
0.30 0.37 0.36 0.33 0.39 0.43 0.41 0.41 0.39 0.44 0.43 0.42 0.39 0.44 0.40 0.39 0.36 0.32 0.34 0.39 0.40 0.41 0.43 0.51 0.68 0.80 0.95 0.96 0.95 0.95 0.83 0.73 0.70 0.71 0.75 0.80 0.81 0.85 0.87 0.85 0.89 0.94 0.95 0.97
0.21 0.30 0.33 0.26 0.31 0.35 0.40 0.46 0.46 0.35 0.39 0.43 0.36 0.42 0.43 0.44 0.43 0.40 0.38 0.37 0.39 0.41 0.42 0.49 0.58 0.67 0.76 0.98 1.07 1.01 0.88 0.81 0.79 0.78 0.78 0.83 0.85 0.88 0.86 0.84 0.85 0.89 0.93 0.96
0.21 0.27 0.18 0.24 0.34 0.33 0.31 0.34 0.39 0.42 0.47 0.41 0.37 0.37 0.42 0.47 0.46 0.47 0.46 0.42 0.40 0.43 0.46 0.48 0.55 0.67 0.71 0.78 0.89 1.01 0.98 0.87 0.83 0.85 0.88 0.93 0.90 0.88 0.88 0.92 0.89 0.90 0.95 0.97
0.21 0.20 0.22 0.26 0.28 0.29 0.28 0.25 0.35 0.33 0.34 0.35 0.33 0.28 0.28 0.37 0.45 0.47 0.48 0.49 0.48 0.46 0.49 0.51 0.53 0.58 0.68 0.75 0.88 0.92 0.97 0.94 0.92 0.96 1.00 0.99 0.93 0.92 0.94 0.95 0.97 0.98 0.98 0.96
0.22 0.17 0.15 0.16 0.24 0.29 0.33 0.22 0.31 0.31 0.27 0.27 0.26 0.20 0.19 0.29 0.33 0.31 0.41 0.45 0.45 0.50 0.48 0.50 0.54 0.61 0.65 0.67 0.82 0.78 0.89 0.98 1.05 1.07 1.01 0.97 1.02 0.98 0.99 1.06 1.02 1.02 0.99 0.99
0.21 0.19 0.22 0.21 0.23 0.27 0.22 0.17 0.19 0.24 0.25 0.28 0.27 0.25 0.23 0.26 0.28 0.32 0.30 0.32 0.40 0.49 0.52 0.54 0.58 0.64 0.62 0.73 0.76 0.76 0.84 0.92 0.96 1.04 1.04 1.02 1.08 1.08 1.07 1.04 1.02 0.97 0.94 0.93
0.23 0.19 0.16 0.21 0.23 0.21 0.19 0.23 0.25 0.28 0.27 0.27 0.27 0.28 0.27 0.27 0.29 0.30 0.30 0.30 0.35 0.47 0.49 0.53 0.61 0.66 0.63 0.65 0.65 0.78 0.86 0.88 0.88 0.95 1.01 1.08 1.11 1.08 1.09 1.09 1.01 0.97 0.93 0.89
0.26 0.22 0.26 0.23 0.24 0.27 0.30 0.29 0.27 0.33 0.33 0.32 0.31 0.29 0.28 0.26 0.30 0.32 0.32 0.34 0.39 0.38 0.42 0.45 0.56 0.63 0.63 0.64 0.72 0.75 0.79 0.80 0.84 0.91 1.01 1.04 1.04 1.03 1.03 1.08 1.02 0.96 0.91 0.87
0.31 0.28 0.25 0.25 0.32 0.35 0.36 0.34 0.35 0.39 0.38 0.38 0.32 0.30 0.30 0.29 0.30 0.30 0.29 0.30 0.36 0.37 0.35 0.42 0.53 0.61 0.63 0.68 0.72 0.73 0.73 0.76 0.77 0.83 0.89 0.96 0.98 1.00 1.00 1.02 0.96 0.90 0.82 0.80
0.33 0.30 0.36 0.29 0.30 0.35 0.39 0.40 0.38 0.39 0.39 0.39 0.37 0.32 0.30 0.30 0.29 0.29 0.29 0.30 0.33 0.38 0.41 0.45 0.57 0.62 0.68 0.68 0.69 0.67 0.68 0.71 0.75 0.81 0.88 0.90 0.95 1.01 1.01 1.01 0.96 0.85 0.85 0.86
0.23 0.35 0.34 0.27 0.36 0.37 0.35 0.35 0.37 0.37 0.39 0.40 0.39 0.35 0.33 0.29 0.27 0.28 0.28 0.29 0.32 0.40 0.53 0.57 0.65 0.69 0.70 0.71 0.70 0.67 0.65 0.68 0.75 0.79 0.87 0.91 0.97 0.94 0.97 0.93 0.90 0.89 0.86 0.85
0.33 0.39 0.37 0.35 0.33 0.37 0.35 0.32 0.31 0.33 0.33 0.36 0.37 0.37 0.34 0.30 0.27 0.26 0.29 0.34 0.35 0.41 0.55 0.62 0.68 0.73 0.75 0.74 0.73 0.72 0.72 0.71 0.77 0.82 0.87 0.85 0.87 0.87 0.82 0.82 0.88 0.85 0.85 0.79
0.39 0.38 0.32 0.36 0.32 0.38 0.40 0.37 0.39 0.38 0.36 0.34 0.32 0.33 0.33 0.31 0.29 0.29 0.28 0.34 0.37 0.42 0.61 0.66 0.70 0.74 0.76 0.78 0.79 0.79 0.82 0.85 0.86 0.85 0.86 0.84 0.84 0.82 0.83 0.78 0.74 0.73 0.75 0.76
0.40 0.43 0.41 0.42 0.41 0.40 0.43 0.44 0.43 0.43 0.44 0.42 0.39 0.33 0.32 0.30 0.29 0.29 0.35 0.39 0.42 0.47 0.68 0.71 0.70 0.74 0.81 0.87 0.88 0.86 0.84 0.85 0.86 0.85 0.84 0.83 0.84 0.83 0.77 0.72 0.72 0.72 0.71 0.69
0.42 0.44 0.44 0.43 0.43 0.45 0.46 0.47 0.45 0.45 0.49 0.51 0.47 0.42 0.37 0.38 0.37 0.40 0.43 0.42 0.39 0.47 0.69 0.73 0.75 0.83 0.89 0.90 0.86 0.85 0.84 0.84 0.84 0.83 0.81 0.78 0.76 0.74 0.73 0.71 0.68 0.64 0.61 0.58
0.39 0.38 0.40 0.40 0.44 0.46 0.47 0.48 0.48 0.50 0.56 0.60 0.54 0.52 0.49 0.47 0.46 0.48 0.46 0.47 0.49 0.63 0.77 0.77 0.83 0.91 0.90 0.89 0.85 0.85 0.83 0.81 0.81 0.79 0.77 0.76 0.73 0.70 0.67 0.64 0.59 0.55 0.50 0.44
0.45 0.45 0.45 0.44 0.45 0.46 0.48 0.49 0.51 0.55 0.58 0.65 0.66 0.62 0.59 0.59 0.53 0.50 0.48 0.51 0.55 0.73 0.78 0.84 0.86 0.85 0.84 0.85 0.84 0.81 0.79 0.77 0.74 0.72 0.71 0.68 0.64 0.61 0.56 0.51 0.44 0.37 0.34 0.33
0.40 0.40 0.41 0.41 0.47 0.49 0.49 0.50 0.51 0.54 0.57 0.60 0.61 0.59 0.61 0.62 0.62 0.55 0.56 0.56 0.63 0.70 0.72 0.80 0.83 0.80 0.78 0.77 0.77 0.74 0.72 0.69 0.67 0.64 0.60 0.56 0.52 0.47 0.40 0.34 0.31 0.30 0.29 0.29
0.34 0.35 0.36 0.36 0.42 0.46 0.49 0.51 0.53 0.54 0.56 0.57 0.57 0.57 0.55 0.57 0.61 0.62 0.64 0.62 0.66 0.70 0.74 0.73 0.76 0.74 0.73 0.71 0.69 0.65 0.61 0.57 0.53 0.50 0.46 0.42 0.36 0.32 0.31 0.30 0.28 0.27 0.26 0.26
0.32 0.33 0.33 0.32 0.32 0.36 0.44 0.51 0.52 0.51 0.54 0.55 0.55 0.55 0.55 0.58 0.60 0.61 0.60 0.58 0.62 0.68 0.68 0.67 0.68 0.67 0.63 0.59 0.57 0.53 0.48 0.44 0.41 0.38 0.34 0.30 0.29 0.27 0.26 0.26 0.26 0.25 0.24 0.24
0.30 0.31 0.31 0.31 0.31 0.31 0.33 0.37 0.45 0.50 0.51 0.52 0.53 0.55 0.55 0.55 0.57 0.57 0.60 0.59 0.62 0.63 0.62 0.59 0.57 0.55 0.51 0.49 0.45 0.41 0.40 0.38 0.34 0.31 0.29 0.28 0.26 0.25 0.24 0.24 0.23 0.23 0.23 0.22
0.29 0.30 0.30 0.29 0.29 0.31 0.33 0.32 0.32 0.37 0.43 0.47 0.50 0.52 0.51 0.53 0.54 0.51 0.50 0.57 0.59 0.57 0.55 0.53 0.53 0.50 0.48 0.44 0.41 0.39 0.37 0.35 0.33 0.30 0.29 0.27 0.25 0.24 0.23 0.23 0.23 0.22 0.21 0.20
0.27 0.28 0.28 0.30 0.31 0.28 0.26 0.30 0.32 0.33 0.34 0.36 0.41 0.45 0.48 0.48 0.50 0.53 0.55 0.57 0.56 0.55 0.54 0.53 0.53 0.52 0.49 0.46 0.41 0.39 0.39 0.38 0.35 0.32 0.29 0.26 0.24 0.23 0.23 0.22 0.21 0.21 0.21 0.21
0.24 0.25 0.26 0.26 0.25 0.26 0.26 0.28 0.29 0.30 0.32 0.32 0.33 0.35 0.36 0.38 0.37 0.41 0.42 0.43 0.46 0.47 0.47 0.50 0.51 0.52 0.50 0.45 0.40 0.37 0.36 0.35 0.34 0.31 0.27 0.24 0.22 0.21 0.21 0.21 0.21 0.20 0.20 0.20
0.21 0.20 0.19 0.19 0.19 0.23 0.26 0.26 0.24 0.25 0.26 0.26 0.29 0.31 0.33 0.35 0.35 0.35 0.35 0.36 0.36 0.35 0.34 0.36 0.40 0.43 0.45 0.41 0.36 0.34 0.35 0.35 0.35 0.32 0.28 0.25 0.23 0.22 0.21 0.21 0.20 0.19 0.19 0.20
0.19 0.18 0.16 0.15 0.16 0.17 0.18 0.20 0.21 0.21 0.22 0.23 0.24 0.27 0.29 0.30 0.31 0.32 0.33 0.33 0.33 0.34 0.34 0.34 0.34 0.35 0.35 0.35 0.34 0.35 0.36 0.36 0.34 0.31 0.27 0.25 0.24 0.23 0.22 0.21 0.20 0.20 0.19 0.20

GFSNGP_prec_pwat_228.txt.gz
Precipitable_Water
0.28 0.27 0.27 0.27 0.29 0.30 0.29 0.32 0.27 0.30 0.36 0.33 0.37 0.39 0.40 0.40 0.45 0.46 0.39 0.36 0.39 0.41 0.45 0.47 0.47 0.52 0.56 0.61 0.68 0.82 0.81 0.74 0.71 0.76 0.82 0.90 0.95 0.98 1.03 1.02 0.92 0.86 0.84 0.87
0.25 0.30 0.30 0.29 0.31 0.33 0.32 0.30 0.31 0.34 0.32 0.37 0.35 0.43 0.41 0.44 0.46 0.44 0.42 0.40 0.40 0.42 0.43 0.46 0.48 0.49 0.53 0.62 0.69 0.76 0.90 0.87 0.90 0.86 0.88 0.90 0.97 1.03 0.97 0.89 0.87 0.85 0.85 0.88
0.19 0.26 0.26 0.23 0.23 0.24 0.25 0.28 0.28 0.22 0.27 0.31 0.30 0.34 0.37 0.39 0.42 0.43 0.45 0.46 0.43 0.41 0.44 0.47 0.48 0.49 0.50 0.55 0.67 0.76 0.81 0.98 1.00 0.99 0.98 0.99 1.03 1.02 0.90 0.87 0.86 0.84 0.89 0.93
0.19 0.24 0.16 0.19 0.26 0.24 0.22 0.24 0.26 0.28 0.30 0.29 0.28 0.29 0.31 0.33 0.36 0.35 0.39 0.44 0.45 0.44 0.46 0.50 0.48 0.48 0.50 0.51 0.57 0.69 0.75 0.86 1.03 1.04 1.04 1.08 1.05 0.97 0.92 0.92 0.85 0.87 0.90 0.94
0.18 0.17 0.21 0.22 0.19 0.21 0.23 0.22 0.30 0.31 0.29 0.25 0.26 0.26 0.29 0.36 0.37 0.36 0.36 0.38 0.46 0.48 0.53 0.49 0.47 0.46 0.49 0.51 0.54 0.61 0.66 0.75 0.89 0.99 1.11 1.08 0.98 0.95 0.99 0.97 0.89 0.89 0.94 0.96
0.22 0.16 0.13 0.15 0.18 0.27 0.27 0.20 0.22 0.25 0.27 0.29 0.32 0.27 0.28 0.35 0.37 0.39 0.38 0.39 0.44 0.45 0.44 0.43 0.44 0.48 0.42 0.49 0.52 0.54 0.63 0.72 0.84 0.89 0.92 1.11 1.16 1.06 0.99 1.01 0.93 0.96 0.97 0.99
0.19 0.19 0.20 0.22 0.25 0.30 0.21 0.16 0.27 0.30 0.33 0.33 0.31 0.34 0.36 0.39 0.41 0.39 0.38 0.40 0.43 0.42 0.38 0.37 0.39 0.43 0.39 0.39 0.44 0.57 0.68 0.70 0.77 0.86 0.89 0.96 1.10 1.19 1.16 1.00 0.94 0.95 0.97 1.02
0.24 0.20 0.18 0.37 0.31 0.28 0.35 0.38 0.38 0.42 0.40 0.38 0.37 0.36 0.35 0.34 0.39 0.39 0.38 0.39 0.41 0.41 0.36 0.36 0.40 0.41 0.36 0.36 0.42 0.50 0.61 0.69 0.71 0.82 0.90 0.98 1.02 1.05 1.11 1.10 0.97 0.95 0.96 1.00
0.26 0.23 0.32 0.36 0.36 0.40 0.40 0.36 0.42 0.43 0.43 0.41 0.38 0.37 0.36 0.32 0.34 0.36 0.39 0.40 0.40 0.38 0.35 0.38 0.41 0.39 0.34 0.35 0.40 0.46 0.52 0.63 0.74 0.80 0.84 0.96 0.98 0.98 1.06 1.07 1.00 0.97 0.98 1.00
0.27 0.25 0.31 0.33 0.34 0.39 0.42 0.40 0.41 0.38 0.40 0.42 0.38 0.38 0.35 0.33 0.32 0.35 0.36 0.39 0.39 0.37 0.34 0.35 0.41 0.41 0.36 0.35 0.38 0.44 0.51 0.57 0.70 0.77 0.78 0.85 0.91 0.93 1.01 1.02 1.02 1.00 0.99 0.98
0.22 0.25 0.31 0.33 0.38 0.40 0.40 0.39 0.40 0.38 0.39 0.40 0.40 0.35 0.36 0.33 0.32 0.32 0.34 0.36 0.38 0.37 0.37 0.36 0.39 0.38 0.37 0.35 0.39 0.41 0.47 0.57 0.67 0.77 0.77 0.81 0.85 0.87 0.89 0.98 1.00 0.95 0.96 0.98
0.22 0.29 0.32 0.33 0.38 0.40 0.37 0.38 0.40 0.39 0.37 0.40 0.42 0.38 0.37 0.35 0.32 0.32 0.33 0.33 0.34 0.38 0.39 0.39 0.38 0.36 0.35 0.38 0.41 0.40 0.42 0.51 0.62 0.71 0.77 0.79 0.79 0.81 0.89 0.94 0.99 1.04 1.07 1.09
0.27 0.33 0.36 0.37 0.39 0.42 0.41 0.41 0.43 0.42 0.42 0.38 0.40 0.41 0.38 0.37 0.35 0.34 0.36 0.35 0.34 0.31 0.35 0.40 0.38 0.37 0.36 0.40 0.43 0.40 0.39 0.51 0.57 0.67 0.71 0.74 0.75 0.77 0.77 0.83 0.93 0.98 1.01 1.07
0.30 0.35 0.33 0.37 0.37 0.42 0.44 0.46 0.46 0.44 0.44 0.42 0.40 0.41 0.39 0.37 0.35 0.34 0.33 0.34 0.38 0.39 0.36 0.37 0.37 0.35 0.39 0.42 0.43 0.41 0.42 0.47 0.57 0.65 0.69 0.71 0.73 0.76 0.77 0.78 0.78 0.82 0.93 0.99
0.34 0.39 0.39 0.41 0.43 0.43 0.47 0.46 0.43 0.40 0.41 0.40 0.41 0.41 0.40 0.37 0.36 0.36 0.37 0.37 0.39 0.42 0.40 0.35 0.35 0.34 0.40 0.43 0.43 0.41 0.42 0.44 0.57 0.65 0.69 0.74 0.77 0.75 0.74 0.75 0.78 0.79 0.84 0.87
0.37 0.39 0.41 0.41 0.41 0.43 0.43 0.45 0.42 0.41 0.44 0.43 0.44 0.45 0.48 0.48 0.47 0.46 0.46 0.44 0.41 0.38 0.41 0.41 0.36 0.37 0.43 0.45 0.41 0.43 0.44 0.49 0.57 0.64 0.70 0.72 0.75 0.76 0.72 0.71 0.72 0.77 0.77 0.78
0.34 0.33 0.35 0.37 0.38 0.37 0.39 0.44 0.44 0.45 0.45 0.45 0.46 0.49 0.50 0.51 0.52 0.53 0.55 0.58 0.56 0.52 0.51 0.46 0.45 0.51 0.48 0.47 0.45 0.43 0.45 0.49 0.57 0.66 0.70 0.71 0.75 0.75 0.73 0.72 0.72 0.73 0.75 0.79
0.34 0.35 0.37 0.36 0.33 0.33 0.36 0.42 0.45 0.46 0.45 0.47 0.48 0.49 0.48 0.49 0.50 0.55 0.61 0.66 0.63 0.61 0.60 0.64 0.62 0.55 0.51 0.51 0.47 0.45 0.50 0.52 0.59 0.65 0.71 0.74 0.74 0.75 0.74 0.75 0.74 0.74 0.73 0.73
0.30 0.30 0.31 0.32 0.33 0.32 0.32 0.36 0.44 0.47 0.48 0.49 0.47 0.46 0.48 0.50 0.51 0.57 0.62 0.62 0.61 0.59 0.62 0.67 0.61 0.56 0.49 0.48 0.46 0.47 0.51 0.55 0.60 0.66 0.73 0.73 0.72 0.73 0.74 0.72 0.70 0.68 0.66 0.65
0.27 0.27 0.28 0.29 0.30 0.29 0.30 0.34 0.39 0.46 0.48 0.48 0.48 0.47 0.46 0.49 0.51 0.53 0.56 0.52 0.53 0.57 0.61 0.61 0.59 0.52 0.48 0.48 0.48 0.49 0.51 0.54 0.63 0.69 0.68 0.69 0.69 0.68 0.69 0.68 0.64 0.58 0.52 0.47
0.26 0.26 0.25 0.25 0.26 0.28 0.29 0.32 0.34 0.38 0.45 0.48 0.46 0.46 0.47 0.49 0.51 0.50 0.47 0.45 0.50 0.54 0.55 0.55 0.51 0.50 0.50 0.49 0.49 0.49 0.55 0.59 0.61 0.62 0.62 0.62 0.63 0.62 0.57 0.51 0.46 0.42 0.39 0.37
0.26 0.25 0.24 0.25 0.25 0.25 0.28 0.29 0.31 0.34 0.37 0.45 0.45 0.47 0.46 0.46 0.48 0.49 0.49 0.47 0.50 0.51 0.50 0.49 0.49 0.49 0.50 0.52 0.51 0.52 0.56 0.57 0.57 0.58 0.57 0.52 0.48 0.44 0.40 0.37 0.35 0.34 0.34 0.34
0.26 0.25 0.24 0.24 0.23 0.23 0.25 0.27 0.29 0.30 0.31 0.34 0.41 0.44 0.45 0.46 0.46 0.44 0.43 0.50 0.52 0.52 0.52 0.51 0.53 0.54 0.53 0.53 0.53 0.55 0.53 0.49 0.45 0.42 0.39 0.38 0.37 0.35 0.32 0.31 0.32 0.31 0.30 0.29
0.26 0.24 0.23 0.23 0.23 0.23 0.20 0.22 0.26 0.28 0.30 0.31 0.33 0.37 0.42 0.44 0.46 0.49 0.50 0.51 0.52 0.52 0.51 0.50 0.49 0.48 0.46 0.44 0.42 0.39 0.37 0.35 0.34 0.33 0.33 0.33 0.33 0.33 0.32 0.31 0.31 0.29 0.27 0.26
0.27 0.25 0.23 0.21 0.20 0.20 0.20 0.22 0.23 0.24 0.25 0.27 0.29 0.32 0.34 0.36 0.36 0.44 0.48 0.50 0.51 0.51 0.51 0.49 0.47 0.46 0.45 0.43 0.41 0.39 0.38 0.36 0.34 0.33 0.32 0.32 0.31 0.30 0.28 0.26 0.25 0.24 0.23 0.22
0.29 0.26 0.23 0.22 0.21 0.20 0.18 0.20 0.19 0.20 0.20 0.20 0.22 0.26 0.30 0.32 0.34 0.35 0.37 0.38 0.42 0.46 0.47 0.49 0.50 0.46 0.43 0.43 0.43 0.42 0.41 0.39 0.38 0.35 0.33 0.30 0.28 0.26 0.25 0.23 0.22 0.22 0.21 0.21
0.30 0.27 0.24 0.22 0.21 0.20 0.18 0.17 0.16 0.16 0.16 0.17 0.16 0.18 0.21 0.25 0.28 0.30 0.32 0.33 0.35 0.36 0.37 0.38 0.39 0.39 0.41 0.41 0.41 0.40 0.40 0.39 0.38 0.35 0.33 0.31 0.29 0.26 0.25 0.24 0.23 0.22 0.22 0.21

GFSNGP_prec_pwat_231.txt.gz
Precipitable_Water
0.28 0.29 0.31 0.32 0.28 0.27 0.24 0.26 0.29 0.32 0.33 0.38 0.39 0.39 0.42 0.43 0.45 0.46 0.49 0.52 0.48 0.45 0.48 0.52 0.54 0.54 0.55 0.56 0.59 0.70 0.74 0.74 0.76 0.83 0.84 0.90 0.95 0.98 1.04 1.07 1.06 1.10 1.12 1.13
0.25 0.30 0.29 0.26 0.28 0.29 0.27 0.27 0.26 0.27 0.28 0.39 0.39 0.41 0.38 0.38 0.38 0.41 0.42 0.48 0.53 0.49 0.49 0.49 0.50 0.50 0.51 0.52 0.59 0.65 0.73 0.76 0.83 0.89 0.92 0.92 0.99 1.04 1.10 1.13 1.17 1.19 1.15 1.12
0.17 0.25 0.26 0.22 0.22 0.28 0.27 0.27 0.27 0.24 0.29 0.30 0.27 0.27 0.32 0.35 0.35 0.39 0.41 0.40 0.47 0.53 0.49 0.52 0.52 0.50 0.49 0.53 0.53 0.54 0.62 0.74 0.85 0.98 1.05 1.07 1.04 1.11 1.14 1.19 1.22 1.20 1.12 1.07
0.19 0.21 0.13 0.18 0.25 0.24 0.23 0.24 0.26 0.27 0.28 0.29 0.28 0.26 0.30 0.32 0.30 0.32 0.36 0.40 0.39 0.41 0.50 0.53 0.54 0.54 0.48 0.47 0.50 0.50 0.52 0.64 0.75 0.84 0.98 1.19 1.15 1.11 1.21 1.24 1.22 1.16 1.09 1.01
0.17 0.17 0.19 0.18 0.21 0.22 0.22 0.23 0.27 0.27 0.28 0.28 0.30 0.33 0.32 0.36 0.35 0.35 0.41 0.45 0.46 0.44 0.44 0.51 0.55 0.57 0.47 0.44 0.44 0.49 0.53 0.60 0.69 0.82 0.82 0.96 1.20 1.20 1.19 1.19 1.19 1.16 1.10 1.01
0.21 0.16 0.13 0.20 0.24 0.28 0.33 0.25 0.34 0.37 0.35 0.36 0.36 0.30 0.32 0.35 0.41 0.42 0.49 0.54 0.47 0.44 0.43 0.49 0.50 0.49 0.44 0.42 0.43 0.43 0.52 0.59 0.71 0.78 0.86 0.83 0.93 1.16 1.25 1.20 1.12 1.10 1.06 1.07
0.22 0.20 0.21 0.25 0.38 0.35 0.19 0.25 0.43 0.41 0.43 0.43 0.41 0.46 0.47 0.45 0.44 0.44 0.45 0.46 0.47 0.45 0.42 0.44 0.47 0.47 0.40 0.41 0.42 0.42 0.46 0.53 0.61 0.66 0.75 0.88 0.90 0.95 1.09 1.22 1.11 1.03 0.99 1.05
0.27 0.21 0.18 0.41 0.38 0.29 0.36 0.37 0.40 0.41 0.39 0.39 0.43 0.44 0.43 0.39 0.39 0.42 0.45 0.47 0.47 0.44 0.43 0.43 0.45 0.46 0.42 0.40 0.44 0.43 0.43 0.45 0.49 0.61 0.69 0.78 0.85 0.88 0.94 0.96 1.12 1.11 1.02 0.97
0.28 0.27 0.39 0.39 0.35 0.41 0.36 0.35 0.39 0.38 0.40 0.39 0.37 0.36 0.37 0.35 0.38 0.39 0.40 0.41 0.43 0.42 0.42 0.44 0.45 0.43 0.38 0.41 0.48 0.43 0.42 0.41 0.46 0.53 0.66 0.77 0.85 0.82 0.85 0.92 0.93 1.01 1.09 1.05
0.26 0.28 0.32 0.32 0.30 0.34 0.41 0.43 0.40 0.38 0.35 0.37 0.36 0.35 0.34 0.34 0.34 0.37 0.38 0.38 0.39 0.38 0.39 0.41 0.44 0.44 0.43 0.41 0.47 0.46 0.40 0.43 0.47 0.52 0.60 0.75 0.82 0.87 0.83 0.87 0.92 0.95 0.98 0.99
0.18 0.20 0.27 0.31 0.34 0.35 0.40 0.47 0.39 0.37 0.38 0.38 0.38 0.36 0.38 0.34 0.34 0.36 0.39 0.38 0.40 0.38 0.39 0.39 0.41 0.42 0.44 0.43 0.46 0.43 0.39 0.41 0.45 0.45 0.56 0.71 0.76 0.78 0.83 0.90 0.94 0.97 1.01 1.03
0.19 0.27 0.28 0.29 0.31 0.33 0.37 0.37 0.38 0.36 0.37 0.42 0.42 0.40 0.40 0.37 0.36 0.37 0.38 0.39 0.39 0.40 0.40 0.38 0.38 0.37 0.41 0.46 0.47 0.43 0.40 0.43 0.45 0.45 0.48 0.55 0.63 0.69 0.83 0.91 0.93 0.95 1.06 1.11
0.31 0.31 0.27 0.25 0.27 0.35 0.38 0.42 0.41 0.42 0.44 0.42 0.42 0.42 0.40 0.38 0.37 0.37 0.38 0.38 0.38 0.38 0.38 0.41 0.40 0.38 0.36 0.44 0.47 0.45 0.41 0.46 0.48 0.47 0.43 0.45 0.52 0.62 0.67 0.79 0.89 0.92 0.93 0.98
0.28 0.26 0.26 0.31 0.34 0.43 0.42 0.42 0.45 0.47 0.46 0.44 0.42 0.42 0.41 0.40 0.39 0.38 0.37 0.39 0.40 0.39 0.38 0.38 0.39 0.37 0.39 0.42 0.44 0.45 0.44 0.49 0.50 0.49 0.42 0.43 0.47 0.58 0.67 0.72 0.76 0.80 0.88 0.90
0.29 0.32 0.37 0.39 0.40 0.41 0.44 0.43 0.42 0.43 0.43 0.44 0.46 0.44 0.43 0.41 0.39 0.39 0.41 0.41 0.40 0.39 0.37 0.38 0.38 0.38 0.41 0.41 0.42 0.43 0.43 0.48 0.53 0.51 0.44 0.43 0.48 0.57 0.65 0.69 0.73 0.76 0.80 0.83
0.31 0.36 0.37 0.36 0.37 0.39 0.39 0.38 0.40 0.42 0.45 0.45 0.45 0.44 0.46 0.46 0.46 0.48 0.50 0.51 0.44 0.39 0.39 0.39 0.38 0.39 0.45 0.46 0.43 0.44 0.45 0.50 0.51 0.45 0.43 0.43 0.46 0.55 0.62 0.65 0.67 0.72 0.74 0.78
0.32 0.29 0.30 0.32 0.34 0.33 0.33 0.34 0.37 0.41 0.44 0.45 0.45 0.46 0.47 0.47 0.48 0.50 0.54 0.59 0.59 0.55 0.52 0.50 0.46 0.49 0.53 0.51 0.46 0.47 0.50 0.48 0.46 0.45 0.44 0.46 0.49 0.52 0.61 0.64 0.67 0.70 0.73 0.75
0.32 0.30 0.31 0.30 0.28 0.28 0.29 0.32 0.34 0.38 0.42 0.45 0.47 0.46 0.46 0.45 0.45 0.48 0.51 0.56 0.58 0.59 0.62 0.64 0.62 0.63 0.65 0.58 0.52 0.49 0.47 0.46 0.46 0.45 0.46 0.48 0.49 0.55 0.60 0.63 0.64 0.70 0.75 0.78
0.31 0.29 0.28 0.27 0.26 0.26 0.27 0.28 0.31 0.35 0.42 0.45 0.46 0.44 0.46 0.46 0.47 0.49 0.50 0.53 0.53 0.53 0.57 0.64 0.70 0.70 0.64 0.60 0.56 0.53 0.51 0.48 0.47 0.47 0.47 0.51 0.52 0.57 0.59 0.62 0.67 0.72 0.73 0.72
0.31 0.28 0.27 0.26 0.25 0.24 0.24 0.27 0.29 0.31 0.37 0.43 0.45 0.45 0.44 0.46 0.47 0.47 0.49 0.46 0.48 0.50 0.56 0.60 0.62 0.64 0.66 0.66 0.60 0.54 0.51 0.47 0.47 0.47 0.46 0.48 0.53 0.54 0.58 0.62 0.66 0.68 0.67 0.66
0.31 0.28 0.26 0.24 0.24 0.25 0.24 0.25 0.26 0.27 0.32 0.38 0.42 0.43 0.44 0.46 0.47 0.47 0.44 0.43 0.48 0.51 0.53 0.54 0.55 0.57 0.60 0.61 0.58 0.54 0.49 0.47 0.46 0.45 0.46 0.48 0.53 0.54 0.56 0.58 0.61 0.63 0.62 0.59
0.30 0.28 0.25 0.24 0.24 0.24 0.24 0.25 0.25 0.27 0.29 0.32 0.37 0.42 0.44 0.44 0.46 0.46 0.47 0.45 0.49 0.51 0.51 0.51 0.51 0.54 0.55 0.53 0.51 0.47 0.45 0.44 0.44 0.46 0.47 0.48 0.50 0.53 0.56 0.55 0.54 0.50 0.45 0.43
0.31 0.29 0.26 0.24 0.22 0.22 0.24 0.24 0.24 0.25 0.27 0.29 0.31 0.34 0.39 0.43 0.45 0.42 0.40 0.48 0.49 0.48 0.48 0.49 0.50 0.50 0.50 0.50 0.49 0.48 0.47 0.48 0.48 0.48 0.48 0.48 0.49 0.46 0.46 0.42 0.40 0.40 0.37 0.37
0.33 0.30 0.28 0.26 0.23 0.23 0.22 0.22 0.23 0.24 0.26 0.27 0.30 0.32 0.33 0.34 0.41 0.47 0.48 0.49 0.49 0.49 0.48 0.48 0.44 0.44 0.45 0.44 0.43 0.43 0.43 0.42 0.43 0.41 0.39 0.37 0.37 0.37 0.36 0.35 0.34 0.33 0.33 0.32
0.36 0.33 0.30 0.27 0.24 0.23 0.24 0.23 0.22 0.21 0.22 0.22 0.24 0.29 0.32 0.34 0.33 0.38 0.44 0.47 0.48 0.48 0.47 0.48 0.46 0.44 0.42 0.40 0.38 0.37 0.36 0.36 0.36 0.35 0.35 0.35 0.35 0.35 0.34 0.33 0.31 0.29 0.28 0.27
0.37 0.34 0.32 0.29 0.27 0.25 0.25 0.23 0.20 0.19 0.19 0.18 0.18 0.22 0.26 0.30 0.31 0.34 0.36 0.37 0.40 0.43 0.46 0.47 0.47 0.47 0.46 0.45 0.43 0.41 0.39 0.37 0.35 0.34 0.33 0.32 0.31 0.29 0.28 0.27 0.26 0.25 0.24 0.24
0.38 0.35 0.31 0.29 0.27 0.25 0.24 0.22 0.19 0.15 0.15 0.16 0.16 0.17 0.17 0.20 0.23 0.25 0.29 0.32 0.33 0.34 0.35 0.37 0.39 0.41 0.42 0.43 0.44 0.44 0.43 0.40 0.37 0.36 0.34 0.33 0.31 0.30 0.28 0.27 0.26 0.25 0.25 0.24